| time (UTC) | temp F | wind direction | speed knots | gust knots | rain 1hr in | rain 24hr in | rain mn in | humidity % | barometer mb |
| 20260503050044 | 60 | 133 | 0.0 | 0.0 | 0.00 | 0.00 | 0.00 | 67 | 1011.2 |
| 20260503044559 | 61 | 133 | 0.0 | 0.0 | 0.00 | 0.00 | 0.00 | 66 | 1011.1 |
| 20260503043043 | 62 | 133 | 0.0 | 0.0 | 0.00 | 0.00 | 0.00 | 64 | 1010.9 |
| 20260503041557 | 63 | 133 | 0.0 | 0.0 | 0.00 | 0.00 | 0.00 | 63 | 1010.7 |
| 20260503040050 | 64 | 133 | 0.0 | 0.0 | 0.00 | 0.00 | 0.00 | 61 | 1010.5 |
| 20260503034541 | 65 | 133 | 0.0 | 0.0 | 0.00 | 0.00 | 0.00 | 61 | 1010.3 |
| 20260503033043 | 66 | 133 | 0.0 | 0.0 | 0.00 | 0.00 | 0.00 | 58 | 1010.0 |
| 20260503031540 | 67 | 133 | 0.0 | 0.0 | 0.00 | 0.00 | 0.00 | 56 | 1009.7 |
| 20260503030039 | 68 | 133 | 0.0 | 0.0 | 0.00 | 0.00 | 0.00 | 52 | 1009.6 |
| 20260503024540 | 70 | 133 | 0.0 | 0.0 | 0.00 | 0.00 | 0.00 | 50 | 1009.4 |
| 20260503023041 | 71 | 133 | 0.0 | 0.0 | 0.00 | 0.00 | 0.00 | 47 | 1009.2 |
| 20260503021540 | 73 | 133 | 0.0 | 0.0 | 0.00 | 0.00 | 0.00 | 45 | 1009.0 |
| 20260503020038 | 75 | 133 | 0.0 | 0.0 | 0.00 | 0.00 | 0.00 | 42 | 1009.0 |
| 20260503014546 | 76 | 133 | 0.0 | 0.0 | 0.00 | 0.00 | 0.00 | 38 | 1008.9 |
| 20260503013037 | 78 | 133 | 0.0 | 0.0 | 0.00 | 0.00 | 0.00 | 36 | 1008.9 |
| 20260503011537 | 78 | 133 | 0.0 | 0.0 | 0.00 | 0.00 | 0.00 | 35 | 1008.9 |
| 20260503010035 | 79 | 133 | 2.6 | 0.0 | 0.00 | 0.00 | 0.00 | 32 | 1008.9 |
| 20260503004533 | 81 | 133 | 3.5 | 0.0 | 0.00 | 0.00 | 0.00 | 29 | 1009.0 |
| 20260503003033 | 84 | 133 | 3.5 | 0.0 | 0.00 | 0.00 | 0.00 | 25 | 1009.0 |
| 20260503001532 | 84 | 131 | 5.2 | 0.0 | 0.00 | 0.00 | 0.00 | 24 | 1009.0 |
| 20260503000032 | 84 | 127 | 3.5 | 0.0 | 0.00 | 0.00 | 0.00 | 26 | 1009.1 |
| 20260502234536 | 85 | 126 | 1.7 | 0.0 | 0.00 | 0.00 | 0.00 | 22 | 1009.2 |
| 20260502233028 | 84 | 126 | 0.9 | 0.0 | 0.00 | 0.00 | 0.00 | 27 | 1009.4 |
| 20260502231526 | 84 | 126 | 0.0 | 0.0 | 0.00 | 0.00 | 0.00 | 23 | 1009.6 |
| 20260502230024 | 84 | 126 | 1.7 | 0.0 | 0.00 | 0.00 | 0.00 | 18 | 1009.8 |
| 20260502224521 | 84 | 126 | 1.7 | 0.0 | 0.00 | 0.00 | 0.00 | 19 | 1010.0 |
| 20260502223019 | 84 | 126 | 1.7 | 0.0 | 0.00 | 0.00 | 0.00 | 21 | 1010.2 |
| 20260502221516 | 83 | 126 | 2.6 | 0.0 | 0.00 | 0.00 | 0.00 | 23 | 1010.5 |
| 20260502220022 | 82 | 126 | 3.5 | 0.0 | 0.00 | 0.00 | 0.00 | 22 | 1010.7 |
| 20260502214512 | 83 | 126 | 1.7 | 0.0 | 0.00 | 0.00 | 0.00 | 22 | 1010.9 |
| 20260502213024 | 82 | 126 | 1.7 | 0.0 | 0.00 | 0.00 | 0.00 | 21 | 1011.2 |
| 20260502211507 | 81 | 126 | 1.7 | 0.0 | 0.00 | 0.00 | 0.00 | 18 | 1011.3 |
| 20260502210003 | 81 | 126 | 2.6 | 0.0 | 0.00 | 0.00 | 0.00 | 22 | 1011.5 |
| 20260502204610 | 80 | 126 | 0.9 | 0.0 | 0.00 | 0.00 | 0.00 | 20 | 1011.8 |
| 20260502203111 | 78 | 126 | 1.7 | 0.0 | 0.00 | 0.00 | 0.00 | 27 | 1012.0 |
| 20260502201553 | 77 | 126 | 2.6 | 0.0 | 0.00 | 0.00 | 0.00 | 32 | 1012.2 |
| 20260502200051 | 77 | 126 | 2.6 | 0.0 | 0.00 | 0.00 | 0.00 | 30 | 1012.6 |
| 20260502194553 | 77 | 126 | 0.9 | 0.0 | 0.00 | 0.00 | 0.00 | 29 | 1012.8 |
| 20260502193044 | 75 | 126 | 1.7 | 0.0 | 0.00 | 0.00 | 0.00 | 35 | 1013.0 |
| 20260502191543 | 74 | 124 | 1.7 | 0.0 | 0.00 | 0.00 | 0.00 | 36 | 1013.3 |
| 20260502190037 | 72 | 124 | 0.0 | 0.0 | 0.00 | 0.00 | 0.00 | 35 | 1013.6 |
| 20260502184538 | 71 | 124 | 0.9 | 0.0 | 0.00 | 0.00 | 0.00 | 39 | 1013.9 |
| 20260502183033 | 70 | 124 | 1.7 | 0.0 | 0.00 | 0.00 | 0.00 | 40 | 1014.0 |
| 20260502181531 | 69 | 123 | 0.9 | 0.0 | 0.00 | 0.00 | 0.00 | 42 | 1014.3 |
| 20260502163004 | 60 | 123 | 0.0 | 0.0 | 0.00 | 0.00 | 0.00 | 58 | 1015.7 |
| 20260502161601 | 59 | 123 | 0.0 | 0.0 | 0.00 | 0.00 | 0.00 | 59 | 1015.8 |
| 20260502151546 | 52 | 123 | 0.0 | 0.0 | 0.00 | 0.00 | 0.00 | 75 | 1016.5 |
| 20260502123037 | 46 | 124 | 0.0 | 0.0 | 0.00 | 0.00 | 0.00 | 84 | 1016.3 |
| 20260502121537 | 46 | 124 | 0.0 | 0.0 | 0.00 | 0.00 | 0.00 | 84 | 1016.3 |
| 20260502114536 | 46 | 124 | 0.0 | 0.0 | 0.00 | 0.00 | 0.00 | 84 | 1016.1 |
| 20260502113033 | 47 | 124 | 0.0 | 0.0 | 0.00 | 0.00 | 0.00 | 84 | 1016.1 |
| 20260502111531 | 47 | 124 | 0.0 | 0.0 | 0.00 | 0.00 | 0.00 | 84 | 1016.1 |
| 20260502110033 | 47 | 124 | 0.0 | 0.0 | 0.00 | 0.00 | 0.00 | 83 | 1016.0 |
| 20260502104529 | 47 | 124 | 0.0 | 0.0 | 0.00 | 0.00 | 0.00 | 82 | 1016.0 |
| 20260502103027 | 48 | 124 | 0.0 | 0.0 | 0.00 | 0.00 | 0.00 | 82 | 1015.9 |
| 20260502101525 | 48 | 124 | 0.0 | 0.0 | 0.00 | 0.00 | 0.00 | 82 | 1015.8 |
| 20260502091518 | 49 | 124 | 0.0 | 0.0 | 0.00 | 0.00 | 0.00 | 80 | 1015.6 |
| 20260502071504 | 52 | 124 | 0.0 | 0.0 | 0.00 | 0.00 | 0.00 | 76 | 1015.1 |
| 20260502064559 | 53 | 124 | 0.0 | 0.0 | 0.00 | 0.00 | 0.00 | 74 | 1014.8 |
| 20260502063059 | 54 | 124 | 0.0 | 0.0 | 0.00 | 0.00 | 0.00 | 72 | 1014.6 |
| 20260502061558 | 54 | 124 | 0.0 | 0.0 | 0.00 | 0.00 | 0.00 | 71 | 1014.5 |
| 20260502060101 | 55 | 124 | 0.0 | 0.0 | 0.00 | 0.00 | 0.00 | 70 | 1014.4 |
| 20260502054559 | 56 | 124 | 0.0 | 0.0 | 0.00 | 0.00 | 0.00 | 69 | 1014.3 |
| 20260502053102 | 57 | 124 | 0.0 | 0.0 | 0.00 | 0.00 | 0.00 | 66 | 1014.2 |
| 20260502051601 | 57 | 124 | 0.0 | 0.0 | 0.00 | 0.00 | 0.00 | 66 | 1014.2 |